| time (UTC) | temp F | wind direction | speed knots | gust knots | rain 1hr in | rain 24hr in | rain mn in | humidity % | barometer mb |
| 20260504195038 | 78 | 234 | 1.7 | 7.8 | 0.00 | 0.00 | 0.00 | 68 | 1013.6 |
| 20260504194302 | 78 | 163 | 2.6 | 7.8 | 0.00 | 0.00 | 0.00 | 68 | 1013.5 |
| 20260504194026 | 78 | 213 | 2.6 | 7.8 | 0.00 | 0.00 | 0.00 | 66 | 1013.7 |
| 20260504193520 | 78 | 171 | 2.6 | 7.0 | 0.00 | 0.00 | 0.00 | 66 | 1013.7 |
| 20260504192744 | 78 | 169 | 2.6 | 7.8 | 0.00 | 0.00 | 0.00 | 68 | 1013.7 |
| 20260504192238 | 78 | 236 | 2.6 | 7.8 | 0.00 | 0.00 | 0.00 | 67 | 1013.7 |
| 20260504191732 | 78 | 202 | 2.6 | 7.8 | 0.00 | 0.00 | 0.00 | 66 | 1013.8 |
| 20260504191226 | 79 | 219 | 1.7 | 8.7 | 0.00 | 0.00 | 0.00 | 65 | 1013.9 |
| 20260504190214 | 79 | 296 | 1.7 | 7.0 | 0.00 | 0.00 | 0.00 | 67 | 1013.9 |
| 20260504185708 | 78 | 219 | 2.6 | 7.0 | 0.00 | 0.00 | 0.00 | 68 | 1014.1 |
| 20260504185201 | 77 | 205 | 2.6 | 7.0 | 0.00 | 0.00 | 0.00 | 68 | 1014.1 |
| 20260504184422 | 78 | 225 | 2.6 | 7.0 | 0.00 | 0.00 | 0.00 | 68 | 1014.1 |
| 20260504183916 | 77 | 227 | 2.6 | 9.6 | 0.00 | 0.00 | 0.00 | 68 | 1014.2 |
| 20260504183410 | 77 | 160 | 3.5 | 9.6 | 0.00 | 0.00 | 0.00 | 69 | 1014.3 |
| 20260504182632 | 78 | 207 | 2.6 | 7.8 | 0.00 | 0.00 | 0.00 | 67 | 1014.6 |
| 20260504182126 | 78 | 207 | 2.6 | 7.8 | 0.00 | 0.00 | 0.00 | 68 | 1014.5 |
| 20260504181619 | 78 | 148 | 2.6 | 7.8 | 0.00 | 0.00 | 0.00 | 68 | 1014.5 |
| 20260504181114 | 77 | 235 | 1.7 | 7.8 | 0.00 | 0.00 | 0.00 | 68 | 1014.6 |
| 20260504180608 | 77 | 240 | 1.7 | 7.8 | 0.00 | 0.00 | 0.00 | 69 | 1014.7 |
| 20260504175556 | 77 | 255 | 2.6 | 7.8 | 0.00 | 0.00 | 0.00 | 68 | 1014.8 |
| 20260504175049 | 77 | 223 | 2.6 | 13.9 | 0.00 | 0.00 | 0.00 | 69 | 1014.8 |
| 20260504174544 | 77 | 173 | 2.6 | 13.9 | 0.00 | 0.00 | 0.00 | 69 | 1014.9 |
| 20260504174038 | 77 | 207 | 2.6 | 7.8 | 0.00 | 0.00 | 0.00 | 68 | 1014.9 |
| 20260504173532 | 77 | 210 | 2.6 | 9.6 | 0.00 | 0.00 | 0.00 | 69 | 1015.0 |
| 20260504173026 | 76 | 215 | 2.6 | 9.6 | 0.00 | 0.00 | 0.00 | 70 | 1015.0 |
| 20260504172753 | 76 | 215 | 2.6 | 9.6 | 0.00 | 0.00 | 0.00 | 71 | 1015.0 |
| 20260504172022 | 76 | 175 | 2.6 | 9.6 | 0.00 | 0.00 | 0.00 | 70 | 1015.0 |
| 20260504171522 | 75 | 248 | 2.6 | 7.8 | 0.00 | 0.00 | 0.00 | 70 | 1015.3 |
| 20260504171022 | 75 | 196 | 1.7 | 7.0 | 0.00 | 0.00 | 0.00 | 71 | 1015.2 |
| 20260504170522 | 74 | 219 | 1.7 | 7.8 | 0.00 | 0.00 | 0.00 | 73 | 1015.3 |
| 20260504160243 | 72 | 199 | 2.6 | 7.8 | 0.00 | 0.00 | 0.00 | 75 | 1015.7 |
| 20260504151009 | 68 | 321 | 1.7 | 5.2 | 0.00 | 0.00 | 0.00 | 82 | 1016.3 |
| 20260504150509 | 67 | 204 | 1.7 | 7.8 | 0.00 | 0.00 | 0.00 | 82 | 1016.2 |
| 20260504141219 | 65 | 177 | 0.9 | 6.1 | 0.00 | 0.00 | 0.00 | 83 | 1016.2 |
| 20260504140443 | 65 | 203 | 0.9 | 4.3 | 0.00 | 0.00 | 0.00 | 83 | 1016.1 |
| 20260504130602 | 63 | 180 | 0.9 | 2.6 | 0.00 | 0.00 | 0.00 | 83 | 1016.1 |
| 20260504120218 | 61 | 178 | 0.0 | 0.0 | 0.00 | 0.00 | 0.00 | 85 | 1015.8 |
| 20260504110613 | 62 | 178 | 0.0 | 2.6 | 0.00 | 0.00 | 0.00 | 82 | 1015.5 |
| 20260504110107 | 62 | 178 | 0.0 | 2.6 | 0.00 | 0.00 | 0.00 | 82 | 1015.6 |
| 20260504100500 | 62 | 178 | 0.9 | 3.5 | 0.00 | 0.00 | 0.00 | 81 | 1016.1 |
| 20260504081943 | 64 | 211 | 0.0 | 2.6 | 0.00 | 0.00 | 0.00 | 78 | 1016.6 |
| 20260504081444 | 64 | 211 | 0.0 | 2.6 | 0.00 | 0.00 | 0.00 | 78 | 1016.6 |
| 20260504080944 | 64 | 211 | 0.9 | 6.1 | 0.00 | 0.00 | 0.00 | 78 | 1016.6 |
| 20260504080441 | 64 | 211 | 0.9 | 6.1 | 0.00 | 0.00 | 0.00 | 78 | 1016.6 |
| 20260504050255 | 67 | 216 | 1.7 | 10.4 | 0.00 | 0.00 | 0.00 | 69 | 1018.7 |
| 20260504045754 | 67 | 145 | 1.7 | 10.4 | 0.00 | 0.00 | 0.00 | 68 | 1018.6 |
| 20260504045525 | 67 | 115 | 1.7 | 7.0 | 0.00 | 0.00 | 0.00 | 68 | 1018.5 |
| 20260504044754 | 67 | 153 | 2.6 | 8.7 | 0.00 | 0.00 | 0.00 | 67 | 1018.4 |
| 20260504044253 | 67 | 148 | 2.6 | 8.7 | 0.00 | 0.00 | 0.00 | 67 | 1018.5 |
| 20260504043754 | 67 | 157 | 1.7 | 7.8 | 0.00 | 0.00 | 0.00 | 66 | 1018.5 |
| 20260504043255 | 68 | 159 | 1.7 | 10.4 | 0.00 | 0.00 | 0.00 | 66 | 1018.6 |
| 20260504043024 | 68 | 160 | 1.7 | 10.4 | 0.00 | 0.00 | 0.00 | 65 | 1018.7 |
| 20260504042254 | 68 | 153 | 1.7 | 7.8 | 0.00 | 0.00 | 0.00 | 65 | 1018.6 |
| 20260504041754 | 68 | 182 | 0.9 | 7.8 | 0.00 | 0.00 | 0.00 | 64 | 1018.5 |
| 20260504041252 | 68 | 141 | 0.9 | 7.8 | 0.00 | 0.00 | 0.00 | 64 | 1018.5 |
| 20260504040752 | 69 | 161 | 1.7 | 8.7 | 0.00 | 0.00 | 0.00 | 63 | 1018.6 |
| 20260504040252 | 69 | 154 | 1.7 | 8.7 | 0.00 | 0.00 | 0.00 | 63 | 1018.5 |
| 20260504035747 | 69 | 188 | 1.7 | 7.0 | 0.00 | 0.00 | 0.00 | 63 | 1018.7 |
| 20260504035249 | 69 | 152 | 0.9 | 6.1 | 0.00 | 0.00 | 0.00 | 63 | 1018.6 |
| 20260504034751 | 69 | 151 | 0.9 | 6.1 | 0.00 | 0.00 | 0.00 | 63 | 1018.7 |
| 20260504034247 | 68 | 161 | 0.9 | 6.1 | 0.00 | 0.00 | 0.00 | 63 | 1018.6 |
| 20260504033748 | 68 | 173 | 0.9 | 6.1 | 0.00 | 0.00 | 0.00 | 62 | 1018.6 |
| 20260504033251 | 68 | 185 | 0.0 | 3.5 | 0.00 | 0.00 | 0.00 | 62 | 1018.6 |
| 20260504032746 | 68 | 185 | 0.9 | 3.5 | 0.00 | 0.00 | 0.00 | 61 | 1018.6 |
| 20260504032516 | 68 | 185 | 0.0 | 3.5 | 0.00 | 0.00 | 0.00 | 61 | 1018.6 |
| 20260504031745 | 67 | 186 | 0.0 | 3.5 | 0.00 | 0.00 | 0.00 | 60 | 1018.5 |
| 20260504031240 | 67 | 186 | 0.0 | 2.6 | 0.00 | 0.00 | 0.00 | 60 | 1018.5 |
| 20260504030733 | 67 | 186 | 0.0 | 2.6 | 0.00 | 0.00 | 0.00 | 59 | 1018.5 |
| 20260504030227 | 67 | 186 | 0.0 | 0.0 | 0.00 | 0.00 | 0.00 | 59 | 1018.4 |
| 20260504025721 | 67 | 186 | 0.0 | 0.0 | 0.00 | 0.00 | 0.00 | 59 | 1018.4 |
| 20260504025214 | 67 | 186 | 0.0 | 0.0 | 0.00 | 0.00 | 0.00 | 58 | 1018.4 |
| 20260504024709 | 68 | 186 | 0.0 | 0.0 | 0.00 | 0.00 | 0.00 | 60 | 1018.3 |
| 20260504024204 | 68 | 186 | 0.0 | 0.0 | 0.00 | 0.00 | 0.00 | 57 | 1018.2 |
| 20260504023657 | 68 | 186 | 0.0 | 0.0 | 0.00 | 0.00 | 0.00 | 56 | 1018.2 |
| 20260504023151 | 68 | 186 | 0.0 | 0.0 | 0.00 | 0.00 | 0.00 | 56 | 1018.3 |
| 20260504022645 | 69 | 186 | 0.0 | 0.0 | 0.00 | 0.00 | 0.00 | 57 | 1018.3 |
| 20260504022139 | 69 | 186 | 0.0 | 0.0 | 0.00 | 0.00 | 0.00 | 56 | 1018.3 |
| 20260504021633 | 69 | 186 | 0.0 | 0.0 | 0.00 | 0.00 | 0.00 | 56 | 1018.4 |
| 20260504021127 | 70 | 186 | 0.0 | 0.0 | 0.00 | 0.00 | 0.00 | 55 | 1018.4 |
| 20260504020852 | 70 | 186 | 0.0 | 0.0 | 0.00 | 0.00 | 0.00 | 54 | 1018.4 |
| 20260504020115 | 70 | 186 | 0.0 | 0.0 | 0.00 | 0.00 | 0.00 | 53 | 1018.3 |
| 20260504015841 | 71 | 186 | 0.0 | 0.0 | 0.00 | 0.00 | 0.00 | 52 | 1018.3 |
| 20260504015103 | 71 | 186 | 0.0 | 0.0 | 0.00 | 0.00 | 0.00 | 52 | 1018.2 |
| 20260504014557 | 71 | 186 | 0.0 | 0.0 | 0.00 | 0.00 | 0.00 | 52 | 1018.2 |
| 20260504014051 | 71 | 186 | 0.0 | 0.0 | 0.00 | 0.00 | 0.00 | 51 | 1018.2 |
| 20260504013545 | 72 | 186 | 0.0 | 0.0 | 0.00 | 0.00 | 0.00 | 51 | 1018.1 |
| 20260504013039 | 72 | 186 | 0.0 | 0.0 | 0.00 | 0.00 | 0.00 | 50 | 1017.9 |
| 20260504012532 | 72 | 186 | 0.0 | 1.7 | 0.00 | 0.00 | 0.00 | 50 | 1017.9 |
| 20260504012027 | 72 | 186 | 0.0 | 1.7 | 0.00 | 0.00 | 0.00 | 50 | 1017.8 |
| 20260504011521 | 72 | 186 | 0.9 | 2.6 | 0.00 | 0.00 | 0.00 | 49 | 1017.8 |
| 20260504011015 | 73 | 186 | 0.0 | 3.5 | 0.00 | 0.00 | 0.00 | 49 | 1017.8 |
| 20260504010508 | 73 | 186 | 0.0 | 3.5 | 0.00 | 0.00 | 0.00 | 49 | 1017.8 |
| 20260504010003 | 73 | 186 | 0.9 | 2.6 | 0.00 | 0.00 | 0.00 | 49 | 1017.8 |
| 20260504005458 | 73 | 186 | 0.9 | 2.6 | 0.00 | 0.00 | 0.00 | 49 | 1017.7 |
| 20260504004952 | 73 | 186 | 0.0 | 2.6 | 0.00 | 0.00 | 0.00 | 48 | 1017.8 |
| 20260504004446 | 74 | 186 | 0.0 | 1.7 | 0.00 | 0.00 | 0.00 | 48 | 1017.8 |
| 20260504003939 | 74 | 186 | 0.0 | 3.5 | 0.00 | 0.00 | 0.00 | 48 | 1017.8 |
| 20260504003433 | 74 | 186 | 0.0 | 3.5 | 0.00 | 0.00 | 0.00 | 47 | 1017.9 |
| 20260504003157 | 74 | 186 | 0.9 | 3.5 | 0.00 | 0.00 | 0.00 | 47 | 1018.1 |
| 20260504002421 | 74 | 186 | 0.9 | 3.5 | 0.00 | 0.00 | 0.00 | 46 | 1018.1 |
| 20260504001915 | 74 | 186 | 0.9 | 4.3 | 0.00 | 0.00 | 0.00 | 46 | 1018.1 |
| 20260504001409 | 75 | 186 | 0.9 | 7.8 | 0.00 | 0.00 | 0.00 | 45 | 1017.9 |
| 20260504000902 | 75 | 173 | 0.9 | 7.8 | 0.00 | 0.00 | 0.00 | 45 | 1018.1 |
| 20260504000357 | 76 | 210 | 1.7 | 5.2 | 0.00 | 0.00 | 0.00 | 44 | 1018.1 |
| 20260503235851 | 76 | 127 | 1.7 | 6.1 | 0.00 | 0.00 | 0.00 | 45 | 1018.2 |
| 20260503235345 | 76 | 186 | 1.7 | 6.1 | 0.00 | 0.00 | 0.00 | 44 | 1018.1 |
| 20260503234839 | 76 | 168 | 2.6 | 7.8 | 0.00 | 0.00 | 0.00 | 44 | 1018.3 |
| 20260503234603 | 76 | 163 | 1.7 | 7.8 | 0.00 | 0.00 | 0.00 | 43 | 1018.2 |
| 20260503233827 | 76 | 192 | 1.7 | 7.8 | 0.00 | 0.00 | 0.00 | 43 | 1018.3 |
| 20260503233321 | 76 | 173 | 1.7 | 7.8 | 0.00 | 0.00 | 0.00 | 42 | 1018.4 |
| 20260503232815 | 77 | 152 | 1.7 | 7.0 | 0.00 | 0.00 | 0.00 | 42 | 1018.6 |
| 20260503232315 | 77 | 144 | 1.7 | 7.8 | 0.00 | 0.00 | 0.00 | 41 | 1018.6 |
| 20260503231816 | 77 | 130 | 1.7 | 7.8 | 0.00 | 0.00 | 0.00 | 41 | 1018.6 |
| 20260503231315 | 77 | 165 | 1.7 | 7.0 | 0.00 | 0.00 | 0.00 | 41 | 1018.6 |
| 20260503230813 | 77 | 107 | 2.6 | 7.8 | 0.00 | 0.00 | 0.00 | 41 | 1018.5 |
| 20260503230311 | 77 | 161 | 1.7 | 7.8 | 0.00 | 0.00 | 0.00 | 41 | 1018.5 |
| 20260503225811 | 78 | 149 | 1.7 | 7.8 | 0.00 | 0.00 | 0.00 | 41 | 1018.7 |
| 20260503225311 | 78 | 146 | 1.7 | 7.8 | 0.00 | 0.00 | 0.00 | 40 | 1018.8 |
| 20260503224814 | 78 | 163 | 1.7 | 6.1 | 0.00 | 0.00 | 0.00 | 39 | 1018.6 |
| 20260503224539 | 78 | 169 | 1.7 | 6.1 | 0.00 | 0.00 | 0.00 | 40 | 1018.7 |
| 20260503223809 | 77 | 105 | 1.7 | 5.2 | 0.00 | 0.00 | 0.00 | 40 | 1018.8 |
| 20260503223312 | 77 | 81 | 2.6 | 7.0 | 0.00 | 0.00 | 0.00 | 40 | 1018.7 |
| 20260503222811 | 77 | 153 | 3.5 | 13.0 | 0.00 | 0.00 | 0.00 | 40 | 1018.8 |
| 20260503222544 | 77 | 115 | 3.5 | 13.0 | 0.00 | 0.00 | 0.00 | 40 | 1018.7 |
| 20260503221807 | 78 | 91 | 2.6 | 11.3 | 0.00 | 0.00 | 0.00 | 40 | 1018.9 |
| 20260503221539 | 78 | 86 | 2.6 | 7.8 | 0.00 | 0.00 | 0.00 | 40 | 1019.0 |
| 20260503221038 | 78 | 132 | 2.6 | 7.0 | 0.00 | 0.00 | 0.00 | 40 | 1019.0 |
| 20260503220305 | 78 | 200 | 2.6 | 8.7 | 0.00 | 0.00 | 0.00 | 39 | 1019.2 |
| 20260503215805 | 78 | 124 | 2.6 | 8.7 | 0.00 | 0.00 | 0.00 | 40 | 1019.3 |
| 20260503215304 | 78 | 199 | 1.7 | 7.8 | 0.00 | 0.00 | 0.00 | 40 | 1019.3 |
| 20260503214805 | 78 | 232 | 2.6 | 7.8 | 0.00 | 0.00 | 0.00 | 40 | 1019.4 |
| 20260503214535 | 78 | 184 | 2.6 | 7.8 | 0.00 | 0.00 | 0.00 | 40 | 1019.5 |
| 20260503214035 | 78 | 211 | 1.7 | 7.8 | 0.00 | 0.00 | 0.00 | 40 | 1019.7 |
| 20260503213305 | 78 | 190 | 1.7 | 7.8 | 0.00 | 0.00 | 0.00 | 40 | 1019.8 |
| 20260503211803 | 77 | 136 | 2.6 | 7.8 | 0.00 | 0.00 | 0.00 | 40 | 1019.8 |
| 20260503210801 | 77 | 121 | 2.6 | 7.8 | 0.00 | 0.00 | 0.00 | 40 | 1020.1 |
| 20260503210301 | 78 | 165 | 2.6 | 7.8 | 0.00 | 0.00 | 0.00 | 39 | 1020.0 |
| 20260503205800 | 77 | 153 | 2.6 | 7.8 | 0.00 | 0.00 | 0.00 | 41 | 1020.1 |
| 20260503204800 | 78 | 137 | 2.6 | 12.2 | 0.00 | 0.00 | 0.00 | 40 | 1020.3 |
| 20260503204300 | 78 | 152 | 1.7 | 7.8 | 0.00 | 0.00 | 0.00 | 40 | 1020.5 |
| 20260503203800 | 78 | 228 | 1.7 | 7.8 | 0.00 | 0.00 | 0.00 | 41 | 1020.7 |
| 20260503203254 | 78 | 114 | 2.6 | 7.8 | 0.00 | 0.00 | 0.00 | 41 | 1020.6 |
| 20260503202748 | 78 | 80 | 2.6 | 7.0 | 0.00 | 0.00 | 0.00 | 40 | 1020.7 |
| 20260503202512 | 79 | 114 | 1.7 | 7.0 | 0.00 | 0.00 | 0.00 | 41 | 1021.1 |
| 20260503201736 | 79 | 193 | 1.7 | 5.2 | 0.00 | 0.00 | 0.00 | 40 | 1021.1 |
| 20260503201230 | 78 | 228 | 1.7 | 7.0 | 0.00 | 0.00 | 0.00 | 41 | 1021.3 |
| 20260503200724 | 78 | 175 | 1.7 | 7.0 | 0.00 | 0.00 | 0.00 | 40 | 1021.4 |
| 20260503200218 | 77 | 109 | 1.7 | 7.0 | 0.00 | 0.00 | 0.00 | 39 | 1021.4 |
| 20260503195712 | 76 | 105 | 2.6 | 7.8 | 0.00 | 0.00 | 0.00 | 39 | 1021.6 |
| 20260503195205 | 76 | 111 | 2.6 | 9.6 | 0.00 | 0.00 | 0.00 | 40 | 1021.7 |